Hourly Data Report for February 02, 2013

BAGOTVILLE A
QUEBEC

48°20'00.000" N
71°00'00.000" W
159.10 m
7060400
71727
YBG

Download Data

Hourly Data (February 2013)
Hourly Data Report for February 2, 2013
TIME
LST
Temp Definition
°C
Dew Point Definition
°C
Rel Hum Definition
%
Precip. Amount Definition
mm

Wind Dir Definition
10's deg

Wind Spd Definition
km/h
Visibility Definition
km
Stn Press Definition
kPa
Hmdx Definition


Wind Chill Definition


Weather Definition


00:00 -24.0 -26.6 79   31 19 24.1 99.87   -35 Mainly Clear
01:00 -24.1 -28.9 64   31 15 24.1 99.92   -34 Mainly Clear
02:00 -24.6 -27.2 79   30 11 24.1 99.98   -33 Mainly Clear
03:00 -24.7 -28.5 71   27 6 24.1 99.99   -30 Mainly Clear
04:00 -24.8 -28.6 71   28 11 24.1 100.02   -33 Mainly Clear
05:00 -25.0 -26.6 86   27 6 24.1 100.01   -31 Mainly Clear
06:00 -25.2 -27.9 78     0 24.1 100.00     Mainly Clear
07:00 -26.1 -27.7 86     0 40.2 100.00     Mainly Clear
08:00 -26.0 -30.0 69     0 40.2 100.04     Mainly Clear
09:00 -23.5 -27.1 72     0 40.2 100.07     Mainly Clear
10:00 -22.4 -27.9 61   32 13 32.2 100.07   -31 Mainly Clear
11:00 -21.5 -24.7 75   2 7 9.7 100.04   -27 Snow Showers
12:00 -19.7 -26.2 56   32 9 3.2 99.98   -26 Snow Showers
13:00 -20.4 -24.3 71   3 7 3.2 99.92   -26 Snow Showers
14:00 -19.1 -22.0 78   34 9 4.8 99.86   -26 Snow Showers
15:00 -19.1 -22.0 78   4 4 32.2 99.86   -22 Mainly Clear
16:00 -19.0 -25.2 58   10 4 40.2 99.86   -22 Mainly Clear
17:00 -19.5 -25.9 57   13 4 40.2 99.87   -23 Mainly Clear
18:00 -21.0 -25.0 70   18 6 24.1 99.89   -26 Clear
19:00 -22.0 -25.3 75   18 4 24.1 99.89   -26 Clear
20:00 -23.1 -26.6 73   19 6 24.1 99.89   -29 Clear
21:00 -22.5 -25.9 74   13 4 24.1 99.88   -26 Clear
22:00 -23.8 -26.4 79   14 6 24.1 99.88   -29 Clear
23:00 -23.4 -26.9 73   15 6 24.1 99.87   -29 Clear

Notes on Data Quality.

Legend

  • E = Estimated
  • M = Missing
  • NA = Not Available*
  • [empty] = Indicates an unobserved value
Date modified: